Home > Weather > Wellington > Past weeks

Flag for New Zealand Weather for the Past 2 Weeks in Wellington, New Zealand

Now
63 °F

Mild.


Feels Like: 63 °F
Forecast: 61 / 73 °F
Wind: 3 mph from West

Location: Wellington Airport

Current Time: Feb 9, 2016 at 12:20:16 AM

Latest Report: Feb 9, 2016 at 12:00 AM


Visibility: N/A

Pressure: 29.86 "Hg

Humidity: 88%

Dew point: 59 °F

Location of WellingtonLocation

Historic Weather in Wellington — Graph

°F

Wellington Temperature Yesterday

Maximum temperature yesterday: 70 °F (at 2:00 PM)
Minimum temperature yesterday: 59 °F (at 4:00 AM)
Average temperature yesterday: 64 °F

High & Low Weather Summary for the Past Weeks

 TemperatureHumidityPressure
High79 °F (Feb 1, 3:00 PM)100% (Jan 27, 10:00 AM)30.18 "Hg (Jan 27, 10:00 AM)
Low50 °F (Feb 1, 6:30 AM)32% (Feb 1, 2:30 PM)29.74 "Hg (Feb 5, 5:00 PM)
Average65 °F80%29.99 "Hg
* Reported Jan 24 11:00 PM — Feb 8 11:00 PM, Wellington, Weather by CustomWeather, © 2016

Note: Actual official high and low records may vary slightly from our data, if they occured in-between our weather recording intervals... More about our weather records

Advertising

Wellington Weather History for the Previous 24 Hours

 ConditionsComfort  
Time TempWeatherWind HumidityBarometerVisibility
11:00 PM
Mon, Feb 8
63 °FMild.7 mph77%29.86 "HgN/A
10:30 PM66 °FMild.2 mph73%29.86 "HgN/A
10:00 PM68 °FMild.2 mph64%29.86 "HgN/A
9:30 PM68 °FMild.9 mph69%29.86 "HgN/A
9:00 PM66 °FMild.3 mph73%29.86 "HgN/A
8:30 PM64 °FMild.5 mph78%29.86 "HgN/A
8:00 PM64 °FMild.8 mph78%29.86 "HgN/A
7:30 PM68 °FMild.8 mph69%29.86 "HgN/A
7:00 PM66 °FMild.12 mph78%29.86 "HgN/A
6:30 PM66 °FMild.10 mph78%29.86 "HgN/A
6:00 PM66 °FMild.14 mph73%29.89 "HgN/A
5:30 PM68 °FMild.16 mph69%29.89 "HgN/A
5:00 PM68 °FMild.16 mph69%29.89 "HgN/A
4:30 PM70 °FMild.13 mph64%29.92 "HgN/A
4:00 PM68 °FPartly sunny.12 mph73%29.92 "HgN/A
3:30 PM68 °FPartly sunny.14 mph69%29.92 "HgN/A
3:00 PM70 °FPartly sunny.15 mph64%29.95 "HgN/A
2:00 PM70 °FPartly sunny.12 mph64%29.95 "HgN/A
1:30 PM68 °FPartly sunny.12 mph69%29.98 "HgN/A
12:30 PM68 °FPartly sunny.8 mph64%29.98 "HgN/A
12:00 PM66 °FPartly sunny.12 mph73%29.98 "HgN/A
11:30 AM68 °FPartly sunny.10 mph69%29.98 "HgN/A
11:00 AM66 °FPassing clouds.9 mph73%29.98 "HgN/A
10:30 AM66 °FMild.9 mph73%29.98 "HgN/A
10:00 AM64 °FMild.6 mph78%29.98 "HgN/A
9:30 AM63 °FMild.6 mph83%30.01 "HgN/A
9:00 AM63 °FMild.6 mph83%30.01 "HgN/A
8:30 AM61 °FCool.7 mph88%30.01 "HgN/A
8:00 AM61 °FCool.8 mph88%29.98 "HgN/A
7:30 AM61 °FCool.7 mph88%29.98 "HgN/A
7:00 AM61 °FCool.6 mph88%29.98 "HgN/A
6:30 AM59 °FCool.5 mph94%29.98 "HgN/A
6:00 AM59 °FCool.3 mph88%29.98 "HgN/A
5:30 AM59 °FCool.5 mph94%29.98 "HgN/A
5:00 AM59 °FCool.5 mph94%29.98 "HgN/A
4:30 AM59 °FCool.5 mph88%29.98 "HgN/A
4:00 AM59 °FCool.3 mph88%29.98 "HgN/A
3:30 AM61 °FCool.2 mph88%29.98 "HgN/A
3:00 AM61 °FCool.1 mph83%29.98 "Hg4 mi
2:30 AM61 °FCool.3 mph83%29.98 "HgN/A
2:00 AM61 °FCool.1 mph88%30.01 "HgN/A
1:30 AM61 °FCool.1 mph88%30.01 "HgN/A
1:00 AM63 °FMild.2 mph88%30.01 "Hg5 mi
12:30 AM61 °FCool.2 mph88%30.01 "HgN/A
12:00 AM61 °FCool.1 mph94%29.98 "HgN/A
Weather by CustomWeather, © 2016

See weather overviewHow to use our weather pages